Location: Lake Arresoe
(56.0000°N, 12.5000°E)
Time: 11:31:50
(UTC+02:00)

Cosmos 1674 - Pass Details

Date: 21 August 2020
Orbit: 495 x 517 km, 82.5° (Epoch: 23 September)

Event Time Altitude Azimuth Distance (km) Brightness Sun altitude
Rises 00:56:15 0° 347° (NNW) 2,609 7.7 -21.9°
Reaches altitude 10° 00:58:22 10° 347° (NNW) 1,723 6.5 -21.9°
Enters shadow 01:02:05 83° 284° (WNW) 516 2.5 -21.9°
